Location: Newark
(22.3060°N, 114.2134°E)
Time: 02:48:45
(UTC+00:00)

Explorer 11/Cluster Stage 4 - Pass Details

Date: 04 August 2021
Orbit: 467 x 1256 km, 28.8° (Epoch: 21 September)

Event Time Altitude Azimuth Distance (km) Brightness Sun altitude
Rises 20:52:07 0° 215° (SW) 3,202 - -14.6°
Reaches altitude 10° 20:54:43 10° 203° (SSW) 2,408 - -14.1°
Exits shadow 20:54:50 11° 203° (SSW) 2,379 8.6 -14.1°
Maximum altitude 20:59:38 28° 146° (SE) 1,684 8.4 -13.1°
Drops below altitude 10° 21:05:28 10° 90° (E) 2,891 10.6 -11.8°
Sets 21:08:52 0° 80° (E) 3,969 12.0 -11.1°
